CDT,Max TemperatureF,Mean TemperatureF,Min TemperatureF,Max Dew PointF,MeanDew PointF,Min DewpointF,Max Humidity, Mean Humidity, Min Humidity, Max Sea Level PressureIn, Mean Sea Level PressureIn, Min Sea Level PressureIn, Max VisibilityMiles, Mean VisibilityMiles, Min VisibilityMiles, Max Wind SpeedMPH, Mean Wind SpeedMPH, Max Gust SpeedMPH,PrecipitationIn, CloudCover, Events, WindDirDegrees
2014-3-1,12,8,1,7,-3,-8,85,60,41,30.36,30.21,30.01,10,10,3,16,8,21,0.00,6,,345
2014-3-2,12,4,-5,-9,-15,-18,61,44,27,30.43,30.37,30.29,10,10,10,10,6,,0.00,1,,324
2014-3-3,14,2,-11,7,-11,-27,85,53,24,30.46,30.39,30.27,10,9,2,15,4,18,0.00,2,,258
2014-3-4,19,11,3,10,8,1,100,82,63,30.34,30.23,30.17,10,8,2,12,3,,0.00,7,,218
2014-3-5,10,2,-7,9,0,-15,100,79,57,30.55,30.48,30.34,10,10,10,15,6,18,0.00,1,,51
2014-3-6,23,5,-13,16,4,-17,100,80,54,30.48,30.26,29.97,10,10,6,15,4,20,0.00,0,,196
2014-3-7,30,24,17,28,21,14,93,82,64,30.06,29.90,29.81,10,7,2,15,8,21,0.00,5,,262
2014-3-8,26,16,5,19,10,3,100,71,46,30.25,30.18,30.06,10,10,10,15,9,22,0.00,1,,26
2014-3-9,37,24,10,28,17,7,92,71,55,30.12,29.85,29.63,10,10,10,18,7,23,0.02,1,,237
2014-3-10,62,44,28,34,28,19,100,59,23,29.64,29.53,29.41,10,10,6,15,5,28,0.01,1,,266
2014-3-11,44,36,28,30,27,23,87,65,53,29.88,29.73,29.57,10,10,10,17,7,21,0.00,2,,31
2014-3-12,28,16,3,19,2,-6,78,59,35,30.12,30.02,29.88,10,10,10,20,15,28,0.00,2,,41
2014-3-13,33,15,-2,28,11,-6,100,77,58,30.10,29.88,29.61,10,10,10,20,6,25,0.00,3,,220
2014-3-14,44,38,32,34,31,25,93,74,61,29.72,29.49,29.39,10,10,7,23,9,29,0.00,4,,277
2014-3-15,30,20,8,23,10,0,79,60,40,30.46,30.11,29.74,10,10,10,23,12,26,0.00,4,,19
2014-3-16,15,8,1,7,-2,-24,92,66,28,30.51,30.41,30.18,10,10,10,12,6,,0.00,0,,70
2014-3-17,26,16,5,21,11,1,92,75,54,30.16,29.94,29.81,10,10,4,20,4,26,0.00,6,,161
2014-3-18,33,26,19,28,24,18,93,82,70,29.93,29.88,29.84,10,10,7,17,7,24,0.00,4,,99
2014-3-19,35,32,28,34,29,25,100,90,75,29.84,29.70,29.63,10,5,1,15,10,21,0.07,8,,4
2014-3-20,37,30,24,25,20,16,80,65,44,30.01,29.94,29.82,10,10,9,10,6,17,0.01,6,,302
2014-3-21,35,25,15,28,23,12,100,84,60,30.01,29.89,29.78,10,8,0,17,5,24,0.00,4,,146
2014-3-22,33,24,14,28,13,1,100,61,36,30.36,30.12,29.83,10,10,10,18,9,25,0.00,5,,342
2014-3-23,24,15,6,10,3,0,79,60,36,30.40,30.35,30.30,10,10,10,10,5,,0.00,3,,319
2014-3-24,30,18,5,18,6,0,85,59,32,30.31,30.14,29.95,10,10,10,14,4,25,0.00,2,,274
2014-3-25,21,14,6,14,2,-4,79,56,36,30.17,30.04,29.92,10,10,10,20,7,24,0.00,3,,329
2014-3-26,28,17,6,23,8,-2,80,64,43,30.22,30.12,29.94,10,10,4,18,7,24,0.00,4,,222
2014-3-27,35,32,28,34,31,25,100,91,75,29.94,29.66,29.47,10,4,0,20,10,29,0.25,8,,173
2014-3-28,37,32,28,32,25,18,100,76,52,30.23,29.91,29.47,10,10,2,18,10,29,0.12,6,,15
2014-3-29,35,28,21,21,15,7,93,58,32,30.32,30.27,30.22,10,10,10,12,7,,0.00,3,,85
2014-3-30,42,29,17,30,23,14,100,74,49,30.24,30.11,30.00,10,10,9,20,4,24,0.00,1,,172
2014-3-31,48,38,28,36,30,27,93,73,46,30.03,29.88,29.63,10,9,6,21,7,30,0.00,3,Thunderstorm,142